Regional Weather Roundup
Issued by NWS

Home | Current Version | Previous Version | Graphics & Text | Print | Product List | Glossary Off
Versions: 1 2 3 4 5 6 7 8 9 10 11 12 13 14 15 16 17 18 19 20 21 22 23 24 25 26 27 28 29 30 31 32 33 34 35 36 37 38 39 40 41 42 43 44 45 46 47 48 49 50

000
ASUS43 KTOP 271759
RWRKS

WEATHER ROUNDUP FOR KANSAS
NATIONAL WEATHER SERVICE GOODLAND KS
100 PM CDT FRI MAR 27 2015

NOTE:  "FAIR" INDICATES FEW OR NO CLOUDS BELOW 12,000 FEET WITH NO
SIGNIFICANT WEATHER AND/OR OBSTRUCTIONS TO VISIBILITY.

KSZ001>006-013>018-027>032-041>047-271900-
NORTHWEST KANSAS

CITY           SKY/WX    TMP DP  RH WIND       PRES   REMARKS
GOODLAND       CLOUDY    56  33  42 SW17G25   30.13F
6HR MIN TEMP:  32; 6HR MAX TEMP:  56; 6HR PCP:  0.01;

HAYS           CLOUDY    43  21  42 E3        30.23F
HILL CITY      CLOUDY    44  28  53 S10       30.21F
6HR MIN TEMP:  32; 6HR MAX TEMP:  44; 6HR PCP: TRACE;

RUSSELL        CLOUDY    43  26  51 S6        30.22F
6HR MIN TEMP:  32; 6HR MAX TEMP:  44;

$$

KSZ061>065-074>080-084>089-271900-
SOUTHWEST KANSAS

CITY           SKY/WX    TMP DP  RH WIND       PRES   REMARKS
DODGE CITY     MOSUNNY   42  30  62 SW3       30.24F
6HR MIN TEMP:  34; 6HR MAX TEMP:  43;

ELKHART          N/A     52  35  52 S9          N/A
GARDEN CITY    SUNNY     46  32  58 SW8       30.20F
6HR MIN TEMP:  33; 6HR MAX TEMP:  47;

GREAT BEND     CLOUDY    43  27  52 W3        30.24F
LIBERAL        SUNNY     48  30  49 SE6       30.25F
$$

KSZ066>073-081>083-090>101-271900-
SOUTHEAST KANSAS

CITY           SKY/WX    TMP DP  RH WIND       PRES   REMARKS
CHANUTE        MOSUNNY   46  27  47 N14G20    30.25F
6HR MIN TEMP:  38; 6HR MAX TEMP:  46;

COFFEYVILLE    SUNNY     47  27  45 N10G22    30.25F
6HR MIN TEMP:  40; 6HR MAX TEMP:  48;

HUTCHINSON     PTSUNNY   46  27  47 VRB6      30.25F
6HR MIN TEMP:  35; 6HR MAX TEMP:  47;

MEDICINE LODGE   N/A     47  29  49 VRB7      30.26F
NEWTON         MOSUNNY   43  25  49 NE7       30.26F
PARSONS        MOSUNNY   48  27  44 N9G21     30.26F
6HR MIN TEMP:  40; 6HR MAX TEMP:  48;

WICHITA INTL   PTSUNNY   45  28  51 N6        30.25F
6HR MIN TEMP:  37; 6HR MAX TEMP:  46;

WICHITA JABRA  MOSUNNY   46  27  47 CALM      30.24F
6HR MIN TEMP:  35; 6HR MAX TEMP:  46;

WINFIELD       SUNNY     49  27  42 N9        30.26F
6HR MIN TEMP:  38; 6HR MAX TEMP:  49;

$$

KSZ007>012-019>026-033>040-048>060-102>105-271900-
NORTHEAST KANSAS

CITY           SKY/WX    TMP DP  RH WIND       PRES   REMARKS
CONCORDIA      CLOUDY    41  20  43 N7        30.25F
6HR MIN TEMP:  28; 6HR MAX TEMP:  42;

EMPORIA        MOSUNNY   44  22  41 N13       30.25F
6HR MIN TEMP:  33; 6HR MAX TEMP:  44;

LAWRENCE       SUNNY     41  23  48 NW10G22   30.27F
6HR MIN TEMP:  29; 6HR MAX TEMP:  41;

MANHATTAN      SUNNY     43  21  41 VRB7      30.26F
6HR MIN TEMP:  33; 6HR MAX TEMP:  43;

OLATHE IND     MOSUNNY   40  23  50 NW10      30.26F WCI  33
6HR MIN TEMP:  31; 6HR MAX TEMP:  40;

OLATHE EXE     MOSUNNY   39  20  46 MISG      30.24F
6HR MIN TEMP:  33; 6HR MAX TEMP:  40;

SALINA         CLOUDY    46  24  42 NE3       30.26F
6HR MIN TEMP:  32; 6HR MAX TEMP:  46;

TOPEKA BILLARD SUNNY     41  23  48 N8G17     30.28F
TOPEKA FORBES  SUNNY     42  23  46 N8        30.26F
6HR MIN TEMP:  34; 6HR MAX TEMP:  42;

$$



USA.gov is the U.S. government's official web portal to all federal, state and local government web resources and services.